Find Starlink 5943

NORAD ID: 56016 Int'l Des: 2023-042 Owner: SPXS Country: US Constellation: starlink operational
LEOCIRCULAR

Current View

Loading 3D Globe...

About Starlink 5943

Description loading...

Upcoming Passes

Passes for default location (London). Set your location on the main map for personalized predictions.

Altitude History

Loading altitude history...

Two-Line Element Set

1 56016U 23042AG 26149.51907866 .00000531 00000-0 28834-4 0 9991
2 56016 43.0026 309.0523 0001571 265.2992 94.7680 15.27576981175396
Epoch: May 29, 2026 • Age: 19 hours

Current Status

Altitude 487.2 km
Velocity 7.63 km/s
Sub-Earth Point 42.95°N, 38.05°E
Launch Date Mar 24, 2023
Age 3.1 years
Type internet

Technical Details

Classification Payload
Mass 305.00 kg
Dry Mass 290.00 kg
Total Mass 305.00 kg
Length 0.20 m
Diameter 2.80 m
Span 9.00 m
Shape Box + pan
Manufacturer SPXS
Bus Type Starlink
Phase Status In Orbit
Owner/State SPXS/US

Most Searched